Flag for Belgium Weather past 2 weeks in Bruges, Belgium

Now
54 °F

Partly sunny.


Feels Like: 52 °F
Forecast: 52 / 63 °F
Wind: 6 mph from Southwest

Location: Oostende Airport

Current Time: Aug 22, 2014 at 10:20:03 PM

Latest Report: Aug 22, 2014 at 9:50 PM


Visibility: N/A

Pressure: 29.89 "Hg

Humidity: 82%

Dew point: 48 °F

Location of BrugesLocation

Historic Weather in Bruges — Graph

°F

Bruges temperature yesterday

Maximum temperature yesterday: 63 °F (at 11:20 AM)
Minimum temperature yesterday: 48 °F (at 12:20 AM)
Average temperature yesterday: 55 °F

Past Weeks' High & Low Weather Summary

 TemperatureHumidityPressure
High72 °F (Aug 9, 2:50 PM)88% (Aug 8, 2:20 AM)30.15 "Hg (Aug 8, 2:20 AM)
Low46 °F (Aug 20, 4:20 AM)46% (Aug 9, 3:50 PM)29.45 "Hg (Aug 10, 3:50 PM)
Average60 °F75%29.85 "Hg
* Reported Aug 7 8:20 PM — Aug 22 8:50 PM, Bruges, Weather by CustomWeather, © 2014

Note: Actual official high and low records may vary slightly from our data, if they occured in-between our weather recording intervals... More about our weather records

Advertising

Bruges weather history for previous 24 hours

 ConditionsComfort  
Time TempWeatherWind HumidityBarometerVisibility
8:50 PM
Aug 22
55 °FThunderstorms. Scattered clouds.13 mph82%29.89 "Hg4 mi
8:20 PM55 °FRain showers. Scattered clouds.12 mph77%29.89 "Hg4 mi
7:50 PM55 °FSprinkles. Scattered clouds.9 mph77%29.86 "Hg6 mi
7:20 PM57 °FThunderstorms. Scattered clouds.10 mph72%29.89 "Hg6 mi
6:50 PM59 °FThunderstorms. Scattered clouds.9 mph82%29.89 "HgN/A
6:20 PM61 °FPassing clouds.8 mph72%29.86 "HgN/A
5:50 PM63 °FPassing clouds.10 mph68%29.86 "HgN/A
5:20 PM61 °FPassing clouds.12 mph72%29.86 "HgN/A
4:50 PM63 °FPassing clouds.12 mph68%29.86 "HgN/A
4:20 PM61 °FPassing clouds.10 mph77%29.86 "HgN/A
3:50 PM61 °FPassing clouds.9 mph77%29.86 "HgN/A
3:20 PM61 °FScattered clouds.10 mph83%29.86 "HgN/A
2:50 PM61 °FScattered clouds.10 mph77%29.86 "HgN/A
2:20 PM59 °FScattered clouds.7 mph82%29.86 "HgN/A
1:50 PM59 °FSprinkles. Scattered clouds.12 mph82%29.86 "Hg6 mi
1:20 PM57 °FPassing clouds.12 mph88%29.86 "HgN/A
12:50 PM57 °FSprinkles. Scattered clouds.10 mph82%29.86 "Hg5 mi
12:20 PM55 °FSprinkles. Scattered clouds.15 mph88%29.86 "Hg4 mi
11:50 AM57 °FPassing clouds.15 mph82%29.86 "HgN/A
11:20 AM57 °FPassing clouds.15 mph82%29.86 "HgN/A
10:50 AM57 °FSprinkles. Passing clouds.15 mph82%29.86 "HgN/A
10:20 AM55 °FPassing clouds.14 mph88%29.83 "HgN/A
9:50 AM54 °FSprinkles. Passing clouds.13 mph88%29.86 "HgN/A
9:20 AM54 °FSprinkles. Passing clouds.12 mph88%29.86 "HgN/A
8:50 AM54 °FPassing clouds.12 mph88%29.86 "HgN/A
8:20 AM54 °FSprinkles. Passing clouds.9 mph82%29.86 "HgN/A
7:50 AM54 °FSprinkles. Passing clouds.8 mph82%29.86 "HgN/A
7:20 AM54 °FPassing clouds.8 mph82%29.86 "HgN/A
6:50 AM52 °FSprinkles. Passing clouds.10 mph88%29.86 "HgN/A
6:20 AM52 °FSprinkles. Passing clouds.7 mph88%29.86 "HgN/A
5:50 AM52 °FPassing clouds.8 mph88%29.86 "HgN/A
5:20 AM52 °FPassing clouds.9 mph88%29.89 "HgN/A
4:50 AM52 °FPassing clouds.10 mph82%29.89 "HgN/A
4:20 AM52 °FPassing clouds.10 mph82%29.89 "HgN/A
3:50 AM52 °FPassing clouds.8 mph82%29.89 "HgN/A
3:20 AM50 °FPassing clouds.9 mph88%29.92 "HgN/A
2:50 AM52 °FPassing clouds.10 mph82%29.92 "HgN/A
2:20 AM52 °FPassing clouds.9 mph82%29.92 "HgN/A
1:50 AM52 °FPassing clouds.10 mph82%29.92 "HgN/A
1:20 AM52 °FPassing clouds.9 mph82%29.92 "HgN/A
12:50 AM52 °FPassing clouds.9 mph82%29.95 "HgN/A
12:20 AM52 °FPassing clouds.10 mph82%29.95 "HgN/A
11:50 PM
Aug 21
50 °FPassing clouds.9 mph88%29.95 "HgN/A
11:20 PM52 °FPassing clouds.9 mph82%29.95 "HgN/A
10:50 PM52 °FPassing clouds.8 mph82%29.95 "HgN/A
10:20 PM52 °FPassing clouds.9 mph82%29.95 "HgN/A
Weather by CustomWeather, © 2014

See weather overviewHow to use our weather pages